Tracking 23583 objects as of 28-Jul-2021
HD Live streaming from Space Station
objects crossing your sky now

TIROS 2 DEB *

Track TIROS 2 DEB * now!
10-day predictions


NORAD ID: 5922
Int'l Code: 1960-016E
Perigee: 977.9 km
Apogee: 1,037.2 km
Inclination: 47.0 °
Period: 105.1 minutes
Semi major axis: 7378 km
RCS: 0.0192 m2 (small)
Launch date: November 23, 1960
Source: United States (US)
Launch site: AIR FORCE EASTERN TEST RANGE (AFETR)

Note: This is SATELLITE DEBRIS
aabbcc
Your satellite tracking list
Your tracking list is empty




NASA's NSSDC Master Catalog

Two Line Element Set (TLE):
1  5922U 60016E   21209.10975514 -.00000124  00000-0  67711-5 0  9992
2  5922  47.0298 237.7731 0040141 141.9203 252.7116 13.69762846507020
Source of the keplerian elements: AFSPC